Location: Stockholm
(59.3333°N, 18.0500°E)
Time: 15:54:00
(UTC+02:00)

Mayak - Pass Details

Date: 06 May 2019
Orbit: 582 x 603 km, 97.6° (Epoch: 20 May)

Event Time Altitude Azimuth Distance (km) Brightness Sun altitude
Rises 00:39:16 0° 13° (NNE) 2,853 3.9 -14.3°
Reaches altitude 10° 00:41:30 10° 8° (N) 1,943 2.8 -14.3°
Maximum altitude 00:45:33 48° 295° (WNW) 781 -0.5 -14.3°
Enters shadow 00:48:47 15° 224° (SW) 1,611 0.6 -14.3°
